Location: Ceske Budejovice
(48.9830°N, 14.4670°E)
Time: 21:22:54
(UTC+02:00)

ISS - Visible Passes

Search period start: 22 September 2018 00:00
Search period end: 02 October 2018 00:00
Orbit: 403 x 408 km, 51.6° (Epoch: 23 September)

Date Brightness Start Highest point End Pass type
(mag) Time Alt. Az. Time Alt. Az. Time Alt. Az.
22 Sep -2.2 20:26:54 10° SSW 20:28:53 21° SSE 20:28:53 21° SSE visible
23 Sep -1.8 19:36:06 10° S 19:37:53 14° SE 19:39:38 10° ESE visible
23 Sep -2.2 21:10:37 10° WSW 21:12:21 28° SW 21:12:21 28° SW visible
24 Sep -3.4 20:18:56 10° SW 20:22:04 42° SSE 20:22:54 34° ESE visible
24 Sep -0.7 21:55:15 10° W 21:55:36 12° W 21:55:36 12° W visible
25 Sep -2.6 19:27:28 10° SSW 19:30:17 27° SE 19:33:08 10° E visible
25 Sep -3.2 21:03:16 10° WSW 21:05:59 56° W 21:05:59 56° W visible
26 Sep -3.9 20:11:22 10° WSW 20:14:40 76° SSE 20:16:15 28° ENE visible
26 Sep -0.9 21:48:03 10° W 21:48:56 17° WNW 21:48:56 17° WNW visible
27 Sep -3.5 19:19:34 10° SW 19:22:47 50° SSE 19:26:00 10° ENE visible
27 Sep -3.3 20:56:02 10° W 20:59:06 56° NNW 20:59:06 56° NNW visible
28 Sep -3.7 20:04:00 10° W 20:07:18 70° NNW 20:09:12 23° ENE visible
28 Sep -1.0 21:40:48 10° WNW 21:41:52 19° WNW 21:41:52 19° WNW visible
29 Sep -3.8 19:12:01 10° WSW 19:15:19 87° SSE 19:18:38 10° ENE visible
29 Sep -3.2 20:48:46 10° W 20:51:55 50° N 20:51:55 50° N visible
30 Sep -3.3 19:56:42 10° W 19:59:57 54° N 20:01:54 21° ENE visible
30 Sep -1.1 21:33:25 10° WNW 21:34:34 20° WNW 21:34:34 20° WNW visible
01 Oct -3.3 20:41:25 10° WNW 20:44:32 54° N 20:44:32 54° N visible
